Location: *
(50.0228°S, 177.2688°W)
Time: 18:07:29
(UTC+00:00)

Meteor 2-5 Rocket - Pass Details

Date: 07 April 2020
Orbit: 833 x 912 km, 81.2° (Epoch: 28 May)

Event Time Altitude Azimuth Distance (km) Brightness Sun altitude
Rises 06:51:40 0° 356° (N) 3,395 6.8 -15.1°
Reaches altitude 10° 06:54:03 10° 358° (N) 2,476 6.1 -15.5°
Maximum altitude 06:59:39 74° 81° (E) 905 3.7 -16.4°
Drops below altitude 10° 07:05:26 10° 165° (SSE) 2,557 6.1 -17.3°
Sets 07:07:56 0° 166° (SSE) 3,514 6.9 -17.7°
